Torna al catalogo

ARIANE 1 DEB

AttivoGTO
NORAD 26684·DEBRIS·🇫🇷 France

Lanciato Jul 2, 1985 da Guiana Space Centre

Loading…

TLE

In scadenzaSource: Space-Track

Epoca: Sep 14, 2026, 11:59 UTC

1 26684U 85056J   26257.49960971  .00000064  00000-0  25826-2 0  9992
2 26684   6.1526  29.0020 7074602 135.0926 351.5177  2.37180525239234

Traccia ARIANE 1 DEB in tempo reale con AllMySat

Download on the App Store